STARLINK-34395

Last updated on Sat Jul 19 2025 00:02:07 GMT+0000 (Coordinated Universal Time)

1 64668U 25139E 25199.58335648 -.00001607 00000+0 -20850-4 0 9992 2 64668 53.1594 138.1778 0000803 79.8371 104.1449 15.49312001 4384
UTC large
Height (km)
Speed (km/s)
/
Latitude / Longitude
Inclination (degrees)
Orbital Period (minutes)
Azimuth
Elevation
Range (km)
Doppler Factor

Next 0 passes for location: London (51.5072 / 0.1276)

Sorry there are no passes over London.